Location: C�an Torras
(41.5052°N, 1.9280°E)
Time: 17:53:07
(UTC+00:00)

Cosmos 1680 Rocket - Pass Details

Date: 20 January 2021
Orbit: 761 x 780 km, 74.1° (Epoch: 02 March)

Event Time Altitude Azimuth Distance (km) Brightness Sun altitude
Rises 18:17:54 0° 348° (NNW) 3,247 6.7 -15.7°
Reaches altitude 10° 18:20:31 10° 358° (N) 2,313 5.9 -16.2°
Maximum altitude 18:25:15 33° 62° (ENE) 1,261 4.1 -17.0°
Enters shadow 18:26:38 29° 93° (E) 1,381 4.3 -17.3°
